DLH275 LIML-EDDF

Flight info

Callsign DLH275
Flight time N/A
Altitude 18000
Route PEPAG N851 ABESI/N0445F300 N851 UTAVO DCT ROLSA DCT LADOL T163 EMPAX EMPAX5B
Aircraft A320/M-SDE2E3FGIJ1LORWXYZ/HB1

Departure

Time 2026-05-04 18:46
Airport Milano Linate Airport (LIML)

Arrival

Time N/A
Airport Frankfurt Main Airport (EDDF)
Time Latitude Longitude Altitude Speed Heading
2026-05-04 18:25 45.45971 9.28033 365 ft 0 kts
2026-05-04 18:38 45.45967 9.28033 367 ft 3 kts
2026-05-04 18:38 45.45943 9.28033 365 ft 4 kts 353°
2026-05-04 18:38 45.45919 9.28042 363 ft 4 kts 322°
2026-05-04 18:39 45.45907 9.28067 363 ft 2 kts 269°
2026-05-04 18:39 45.45907 9.28070 363 ft 0 kts 268°
2026-05-04 18:41 45.45900 9.28006 364 ft 8 kts 237°
2026-05-04 18:41 45.45855 9.27984 363 ft 9 kts 180°
2026-05-04 18:41 45.45773 9.27983 366 ft 12 kts 181°
2026-05-04 18:42 45.45694 9.27983 363 ft 11 kts 180°
2026-05-04 18:42 45.45623 9.27982 367 ft 10 kts 180°
2026-05-04 18:42 45.45551 9.27980 363 ft 14 kts 180°
2026-05-04 18:42 45.45403 9.27977 362 ft 24 kts 187°
2026-05-04 18:43 45.45243 9.27882 360 ft 26 kts 196°
2026-05-04 18:43 45.45054 9.27883 359 ft 28 kts 175°
2026-05-04 18:43 45.44855 9.27937 363 ft 30 kts 168°
2026-05-04 18:43 45.44643 9.27960 357 ft 31 kts 174°
2026-05-04 18:44 45.44420 9.27985 362 ft 33 kts 175°
2026-05-04 18:44 45.44267 9.28002 360 ft 34 kts 175°
2026-05-04 18:44 45.43949 9.28036 358 ft 35 kts 175°
2026-05-04 18:44 45.43703 9.28061 350 ft 36 kts 176°
2026-05-04 18:45 45.43512 9.28083 352 ft 19 kts 177°
2026-05-04 18:45 45.43445 9.27956 349 ft 18 kts 266°
2026-05-04 18:45 45.43476 9.27825 356 ft 12 kts 332°
2026-05-04 18:45 45.43552 9.27812 350 ft 14 kts 356°
2026-05-04 18:46 45.43853 9.27778 351 ft 82 kts 355°
2026-05-04 18:46 45.44631 9.27695 359 ft 141 kts 356°
2026-05-04 18:46 45.45736 9.27572 731 ft 163 kts 355°
2026-05-04 18:46 45.46818 9.27210 1506 ft 160 kts 337°
2026-05-04 18:47 45.47909 9.26651 2075 ft 175 kts 339°
2026-05-04 18:47 45.49136 9.26071 2479 ft 197 kts 340°
2026-05-04 18:47 45.50510 9.25434 2874 ft 217 kts 340°
2026-05-04 18:47 45.52016 9.24715 3416 ft 235 kts 339°
2026-05-04 18:48 45.53588 9.23917 4076 ft 253 kts 339°
2026-05-04 18:48 45.55276 9.23005 4909 ft 263 kts 339°
2026-05-04 18:48 45.57054 9.22236 5807 ft 271 kts 346°
2026-05-04 18:48 45.58926 9.21652 6653 ft 280 kts 349°
2026-05-04 18:49 45.60860 9.21118 7516 ft 286 kts 349°
2026-05-04 18:49 45.62846 9.20566 8403 ft 293 kts 349°
2026-05-04 18:49 45.64869 9.19977 9276 ft 299 kts 348°
2026-05-04 18:49 45.66900 9.19356 10120 ft 306 kts 347°
2026-05-04 18:50 45.69077 9.18664 10559 ft 328 kts 346°
2026-05-04 18:50 45.71346 9.17887 10879 ft 351 kts 345°
2026-05-04 18:50 45.73763 9.17012 11478 ft 362 kts 344°
2026-05-04 18:50 45.76220 9.16104 12291 ft 366 kts 343°
2026-05-04 18:51 45.78697 9.15192 13131 ft 369 kts 343°
2026-05-04 18:51 45.81200 9.14278 13960 ft 372 kts 343°
2026-05-04 18:51 45.83728 9.13364 14707 ft 376 kts 343°
2026-05-04 18:51 45.86267 9.12424 15420 ft 378 kts 342°
2026-05-04 18:52 45.88811 9.11387 16145 ft 382 kts 341°
2026-05-04 18:52 45.91374 9.10271 16863 ft 385 kts 340°
2026-05-04 18:52 45.93987 9.09102 17085 ft 403 kts 340°
2026-05-04 18:52 45.96724 9.07877 17233 ft 420 kts 340°
2026-05-04 18:53 45.99629 9.06916 17369 ft 438 kts 350°
2026-05-04 18:53 46.02684 9.06416 17690 ft 446 kts 351°
2026-05-04 18:53 46.05749 9.05926 18014 ft 449 kts 351°
2026-05-04 18:53 46.08858 9.05429 18080 ft 450 kts 351°
2026-05-04 18:54 46.11965 9.04931 18079 ft 449 kts 351°
2026-05-04 18:54 46.15070 9.04428 18080 ft 449 kts 351°
2026-05-04 18:54 46.18192 9.03932 18080 ft 449 kts 352°
2026-05-04 18:54 46.21304 9.03485 18084 ft 449 kts 352°
2026-05-04 18:55 46.24417 9.03078 18088 ft 449 kts 352°
2026-05-04 18:55 46.30621 9.02305 18081 ft 449 kts 352°
2026-05-04 18:55 46.33740 9.01907 18086 ft 449 kts 352°
2026-05-04 18:56 46.36860 9.01494 18080 ft 449 kts 352°
2026-05-04 18:56 46.39974 9.01077 18084 ft 448 kts 352°
2026-05-04 18:56 46.43053 9.00661 18078 ft 448 kts 352°
2026-05-04 18:56 46.46173 9.00240 18069 ft 451 kts 352°
2026-05-04 18:57 46.49315 8.99813 18084 ft 454 kts 352°
2026-05-04 18:57 46.52478 8.99381 18077 ft 455 kts 352°
2026-05-04 18:57 46.55623 8.98951 18074 ft 455 kts 352°
2026-05-04 18:57 46.58772 8.98523 18076 ft 455 kts 352°
2026-05-04 18:58 46.61932 8.98098 18082 ft 455 kts 352°
2026-05-04 18:58 46.65092 8.97675 18068 ft 456 kts 352°
2026-05-04 18:58 46.68255 8.97253 18068 ft 456 kts 352°
2026-05-04 18:58 46.71369 8.96833 18055 ft 456 kts 352°
2026-05-04 18:59 46.74532 8.96401 18062 ft 456 kts 351°
2026-05-04 18:59 46.77696 8.95963 18058 ft 455 kts 352°
2026-05-04 18:59 46.80858 8.95526 18046 ft 456 kts 352°
2026-05-04 18:59 46.84029 8.95091 18037 ft 453 kts 352°
2026-05-04 19:00 46.87163 8.94667 18016 ft 453 kts 352°
2026-05-04 19:00 46.90309 8.94243 18003 ft 454 kts 352°
2026-05-04 19:00 46.93429 8.93822 18008 ft 455 kts 352°
2026-05-04 19:00 46.96582 8.93391 17993 ft 455 kts 352°
2026-05-04 19:01 46.99741 8.92958 18000 ft 455 kts 352°
2026-05-04 19:01 47.02901 8.92524 17995 ft 455 kts 352°
2026-05-04 19:01 47.06062 8.92087 17997 ft 456 kts 352°
2026-05-04 19:01 47.09227 8.91649 17991 ft 455 kts 352°
2026-05-04 19:02 47.12338 8.91221 17987 ft 455 kts 352°
2026-05-04 19:02 47.15495 8.90787 17990 ft 455 kts 352°
2026-05-04 19:02 47.18646 8.90350 17983 ft 455 kts 352°
2026-05-04 19:02 47.21809 8.89910 17982 ft 455 kts 352°
2026-05-04 19:03 47.24969 8.89470 17989 ft 455 kts 352°
2026-05-04 19:03 47.28118 8.89046 17987 ft 455 kts 353°
2026-05-04 19:03 47.31299 8.89080 17987 ft 457 kts
2026-05-04 19:03 47.34479 8.89312 17986 ft 457 kts
2026-05-04 19:04 47.37614 8.89540 17983 ft 457 kts
2026-05-04 19:04 47.40797 8.89772 17985 ft 457 kts
2026-05-04 19:04 47.43970 8.90006 17984 ft 457 kts
2026-05-04 19:04 47.47151 8.90239 17987 ft 457 kts
2026-05-04 19:05 47.50325 8.90466 17991 ft 456 kts
2026-05-04 19:05 47.53506 8.90690 17990 ft 456 kts
2026-05-04 19:05 47.56677 8.90913 17987 ft 456 kts
2026-05-04 19:05 47.59849 8.91143 17985 ft 455 kts
2026-05-04 19:06 47.62972 8.91374 17973 ft 455 kts
2026-05-04 19:06 47.66146 8.91608 17980 ft 455 kts
2026-05-04 19:06 47.69326 8.91838 17991 ft 455 kts
2026-05-04 19:06 47.72492 8.92071 17984 ft 455 kts
2026-05-04 19:07 47.75664 8.92308 17975 ft 455 kts
2026-05-04 19:07 47.78829 8.92545 17974 ft 455 kts
2026-05-04 19:07 47.81967 8.92779 17974 ft 455 kts
2026-05-04 19:07 47.85138 8.93011 17974 ft 455 kts
2026-05-04 19:08 47.88272 8.93240 17978 ft 455 kts
2026-05-04 19:08 47.91445 8.93470 17972 ft 455 kts
2026-05-04 19:08 47.94618 8.93701 17968 ft 456 kts
2026-05-04 19:08 47.97804 8.93934 17969 ft 456 kts
2026-05-04 19:09 48.00930 8.94163 17977 ft 456 kts
2026-05-04 19:09 48.04107 8.94397 17978 ft 456 kts
2026-05-04 19:09 48.07280 8.94629 17976 ft 456 kts
2026-05-04 19:09 48.10463 8.94862 17982 ft 456 kts
2026-05-04 19:10 48.13633 8.95099 17979 ft 456 kts
2026-05-04 19:10 48.16764 8.95341 17978 ft 455 kts
2026-05-04 19:10 48.19931 8.95677 17977 ft 455 kts
2026-05-04 19:10 48.23091 8.96128 17974 ft 455 kts
2026-05-04 19:11 48.26245 8.96646 17976 ft 456 kts
2026-05-04 19:11 48.29391 8.97185 17974 ft 456 kts
2026-05-04 19:11 48.32557 8.97721 17968 ft 456 kts
2026-05-04 19:11 48.35679 8.98229 17967 ft 456 kts
2026-05-04 19:12 48.38845 8.98723 17965 ft 456 kts
2026-05-04 19:12 48.45178 8.99681 17972 ft 456 kts
2026-05-04 19:12 48.48301 9.00146 17967 ft 456 kts
2026-05-04 19:13 48.51465 9.00618 17970 ft 456 kts
2026-05-04 19:13 48.54629 9.01097 17962 ft 457 kts
2026-05-04 19:13 48.57798 9.01583 17960 ft 457 kts
2026-05-04 19:13 48.60965 9.02069 17960 ft 456 kts
2026-05-04 19:14 48.63064 9.02397 17959 ft 456 kts
2026-05-04 19:14 48.66211 9.02994 17960 ft 457 kts
2026-05-04 19:14 48.69354 9.03717 17959 ft 457 kts
2026-05-04 19:14 48.73510 9.04778 17961 ft 457 kts
2026-05-04 19:15 48.75627 9.05332 17957 ft 457 kts
2026-05-04 19:15 48.78773 9.06146 17955 ft 457 kts
2026-05-04 19:15 48.82954 9.07218 17954 ft 458 kts
2026-05-04 19:15 48.84999 9.07752 17963 ft 450 kts
2026-05-04 19:16 48.88016 9.08544 17980 ft 430 kts
2026-05-04 19:16 48.90935 9.09314 17977 ft 424 kts
2026-05-04 19:16 48.93841 9.10081 17978 ft 422 kts
2026-05-04 19:16 48.96740 9.10852 17980 ft 421 kts
2026-05-04 19:17 48.99629 9.11619 17979 ft 421 kts
2026-05-04 19:17 49.02515 9.12382 17980 ft 421 kts
2026-05-04 19:17 49.05406 9.13144 17980 ft 421 kts
2026-05-04 19:17 49.08266 9.13900 17977 ft 421 kts
2026-05-04 19:18 49.11156 9.14664 17972 ft 421 kts
2026-05-04 19:18 49.14048 9.15428 17974 ft 421 kts
2026-05-04 19:18 49.16936 9.16191 17973 ft 421 kts
2026-05-04 19:18 49.19827 9.16954 17977 ft 421 kts
2026-05-04 19:19 49.22693 9.17711 17948 ft 408 kts
2026-05-04 19:19 49.25407 9.18432 17816 ft 393 kts
2026-05-04 19:19 49.28051 9.19138 17683 ft 379 kts
2026-05-04 19:19 49.30617 9.19825 17549 ft 366 kts
2026-05-04 19:20 49.33073 9.20481 17318 ft 348 kts
2026-05-04 19:20 49.35436 9.21112 16915 ft 341 kts
2026-05-04 19:20 49.37734 9.21725 16666 ft 339 kts
2026-05-04 19:20 49.40055 9.22347 16412 ft 337 kts
2026-05-04 19:21 49.42361 9.22967 16161 ft 336 kts
2026-05-04 19:21 49.44658 9.23584 15909 ft 334 kts
2026-05-04 19:21 49.46943 9.24196 15660 ft 333 kts
2026-05-04 19:21 49.49223 9.24807 15411 ft 331 kts
2026-05-04 19:22 49.51492 9.25416 15166 ft 330 kts
2026-05-04 19:22 49.53755 9.26027 14905 ft 329 kts
2026-05-04 19:22 49.55962 9.26733 14684 ft 327 kts 19°
2026-05-04 19:22 49.57921 9.28466 14437 ft 326 kts 43°
2026-05-04 19:23 49.59293 9.31213 14198 ft 323 kts 62°
2026-05-04 19:23 49.60368 9.34261 13971 ft 323 kts 64°
2026-05-04 19:23 49.61409 9.37326 13731 ft 323 kts 64°
2026-05-04 19:23 49.62449 9.40398 13461 ft 322 kts 64°
2026-05-04 19:24 49.63481 9.43452 13196 ft 320 kts 64°
2026-05-04 19:24 49.64494 9.46453 12936 ft 319 kts 64°
2026-05-04 19:24 49.65516 9.49477 12667 ft 318 kts 64°
2026-05-04 19:24 49.66532 9.52510 12406 ft 316 kts 64°
2026-05-04 19:25 49.67564 9.55525 12146 ft 316 kts 59°
2026-05-04 19:25 49.69009 9.58058 11891 ft 316 kts 37°
2026-05-04 19:25 49.70937 9.59621 11636 ft 313 kts 15°
2026-05-04 19:25 49.73079 9.59982 11381 ft 308 kts 352°
2026-05-04 19:26 49.75103 9.59145 11143 ft 303 kts 330°
2026-05-04 19:26 49.76794 9.57294 10894 ft 296 kts 310°
2026-05-04 19:26 49.78004 9.54761 10648 ft 292 kts 299°
2026-05-04 19:26 49.79104 9.52107 10413 ft 292 kts 299°
2026-05-04 19:27 49.80200 9.49457 10175 ft 291 kts 299°
2026-05-04 19:27 49.81273 9.46859 10000 ft 289 kts 299°
2026-05-04 19:27 49.82355 9.44239 9983 ft 288 kts 299°
2026-05-04 19:27 49.83431 9.41629 9985 ft 288 kts 299°
2026-05-04 19:28 49.84510 9.39010 9980 ft 288 kts 299°
2026-05-04 19:28 49.85562 9.36361 9982 ft 287 kts 295°
2026-05-04 19:28 49.86411 9.33576 9984 ft 285 kts 288°
2026-05-04 19:28 49.87036 9.30668 9983 ft 284 kts 283°
2026-05-04 19:29 49.87586 9.27766 9986 ft 284 kts 283°
2026-05-04 19:29 49.88147 9.24825 9932 ft 285 kts 283°
2026-05-04 19:29 49.88707 9.21893 9816 ft 284 kts 283°
2026-05-04 19:29 49.89260 9.18951 9669 ft 283 kts 283°
2026-05-04 19:30 49.89806 9.16017 9542 ft 282 kts 283°
2026-05-04 19:30 49.90351 9.13089 9407 ft 282 kts 283°
2026-05-04 19:30 49.90896 9.10173 9288 ft 282 kts 283°
2026-05-04 19:30 49.91450 9.07251 9130 ft 282 kts 283°
2026-05-04 19:31 49.92009 9.04328 8736 ft 282 kts 283°
2026-05-04 19:31 49.92631 9.01445 8341 ft 282 kts 290°
2026-05-04 19:31 49.93555 8.98802 7966 ft 283 kts 301°
2026-05-04 19:31 49.94806 8.96439 7591 ft 284 kts 312°
2026-05-04 19:32 49.96333 8.94470 7215 ft 285 kts 323°
2026-05-04 19:32 49.98077 8.92978 6846 ft 286 kts 335°
2026-05-04 19:32 49.99975 8.92073 6477 ft 286 kts 353°
2026-05-04 19:32 50.01953 8.92309 6103 ft 285 kts 12°
2026-05-04 19:33 50.03882 8.93000 5716 ft 283 kts 14°
2026-05-04 19:33 50.05793 8.93728 5336 ft 281 kts 14°
2026-05-04 19:33 50.07656 8.94441 5042 ft 276 kts 14°
2026-05-04 19:33 50.09520 8.95158 5009 ft 276 kts 14°
2026-05-04 19:34 50.11358 8.95869 5008 ft 262 kts 14°
2026-05-04 19:34 50.13065 8.96532 5010 ft 244 kts 14°
2026-05-04 19:34 50.14681 8.96846 5010 ft 226 kts 351°
2026-05-04 19:34 50.16029 8.95924 5008 ft 207 kts 314°
2026-05-04 19:35 50.16764 8.94120 5016 ft 196 kts 289°
2026-05-04 19:35 50.17199 8.92109 5017 ft 195 kts 284°
2026-05-04 19:35 50.17588 8.90078 5017 ft 195 kts 284°